Water Levels and Discharges  |  Reservoirs  |  Precipitation  |  Water quality Last site revision 06.05.2026 15:04
       
Water Levels and Discharges All data are without validation 06.05.2026 15:07:39
Křižanovice
River: Chrudimka
Crest of dam elevation: 405,82 [m asl]
Spillway elevation: 404,10 [m asl]
Maximum flood control capacity level: 404,10 [m asl]
Usable storage capacity level: 404,10 [m asl]
Ineffective storage level: 396,10 [m asl]
Vertical coordinate system: Balt p.v.
Remark:
Schema:
Go to balance data (monthly series)
Graf
Date Water level [m. n. m.] Outflow [m3s-1] QN
06.05.2026 15:00 402,91 0,72
06.05.2026 14:00 402,90 0,73
06.05.2026 13:00 402,91 0,72
06.05.2026 12:00 402,90 0,73
06.05.2026 11:00 402,90 0,74
06.05.2026 10:00 402,90 0,73
06.05.2026 09:00 402,90 0,74
06.05.2026 08:00 402,89 0,75
06.05.2026 07:00 403,01 0,73
06.05.2026 06:00 403,00 0,72
06.05.2026 05:00 403,01 0,72
06.05.2026 04:00 402,99 0,72
06.05.2026 03:00 403,00 0,73
06.05.2026 02:00 402,99 0,72
06.05.2026 01:00 402,98 0,72
06.05.2026 00:00 402,98 0,72
05.05.2026 23:00 402,97 0,72
05.05.2026 22:00 402,96 0,72
05.05.2026 21:00 402,96 0,72
05.05.2026 20:00 402,95 0,73
05.05.2026 19:00 402,94 0,73
05.05.2026 18:00 402,94 0,73
05.05.2026 17:00 402,92 0,73
05.05.2026 16:00 402,91 0,73
05.05.2026 07:00 403,01 0,78
04.05.2026 07:00 403,03 0,82
03.05.2026 07:00 403,09 0,83
02.05.2026 07:00 403,14 0,84
01.05.2026 07:00 403,18 0,85
30.04.2026 07:00 403,23 0,84
This information is also available through the application for mobile phones with Android OS (only in the Czech language)  Reservoir levels
  Povodí Labe, státní podnik © 2026 The system uses also data from measuring stations of   Czech Hydrometeorological Institute © 2026 Application developed by   MGE Data s.r.o. © 1996 - 2024